"TOA5","AWS1","CR1000","7964","CR1000.Std.14","CPU:AWS1_114.CR1","64363","TBL110"
"TIMESTAMP","RECORD","Wind_spd_WVc(1)","Wind_spd_WVc(2)","Air_Temp_Avg","Humidity_Avg","SW_upper_Wm2_Avg","Rain_Tot","Press_Avg","Issui_Tot","Depth_cm","SR50A_Raw","Quality","Ground_Temp_Avg(1)","Ground_Temp_Avg(2)","SW_lower_Wm2_Avg","Albedo_Avg","SWC_per(1)","SWC_per(2)","Period(1)","Period(2)"
"TS","RN","","","","","","","","","","","","","","","","","","",""
"","","WVc","WVc","Avg","Avg","Avg","Tot","Avg","Tot","Smp","Smp","Smp","Avg","Avg","Avg","Avg","Smp","Smp","Smp","Smp"
"2017-09-18 00:00:00",306205,2.044,147.6,18.11,90.3,0,0.5,843.251,0,0.209,3.078,210,17.52,17.57,0,0,50.33,57.62,33.38,35.13
"2017-09-18 00:10:00",306206,2.17,159.6,18.23,91.8,0,1,842.8636,0,1.107,3.067,228,17.51,17.56,0,0,50.28,57.62,33.37,35.13
"2017-09-18 00:20:00",306207,2.187,131.7,18.51,91.5,0,1.5,843.4785,0,2.92,3.049,225,17.5,17.6,0,0,50.33,57.62,33.38,35.13
"2017-09-18 00:30:00",306208,1.959,94.9,18.62,92,0,0,843.6638,0,3.15,3.045,248,17.5,17.61,0,0,50.55,57.62,33.43,35.13
"2017-09-18 00:40:00",306209,2.242,133.8,18.77,88.6,0.007858718,0,843.8448,0,0.81,3.069,224,17.52,17.63,0.007577299,0,50.77,57.68,33.49,35.14
"2017-09-18 00:50:00",306210,2.462,144.6,18.48,86.8,0.0353637,0.5,843.5206,0,3.724,3.042,258,17.54,17.61,0.003788597,0.016,50.99,57.68,33.54,35.14
"2017-09-18 01:00:00",306211,1.906,142.7,18.15,89.4,0,1.5,843.8616,0,0.073,3.079,197,17.54,17.6,0,0,51.21,57.74,33.6,35.16
"2017-09-18 01:10:00",306212,1.127,122.7,17.91,92.8,0,0,843.9943,0,0.601,3.075,203,17.54,17.58,0,0,51.66,57.8,33.7,35.17
"2017-09-18 01:20:00",306213,1.393,85.7,17.77,94.8,0,0.5,844.1564,0,1.964,3.062,259,17.55,17.59,0.003788509,0,51.88,57.97,33.76,35.21
"2017-09-18 01:30:00",306214,1.995,122.5,17.69,94.1,0,0,844.4427,0,3.19,3.051,230,17.55,17.61,0,0,51.99,58.09,33.79,35.24
"2017-09-18 01:40:00",306215,1.561,112.6,17.6,93.4,0,0,844.3122,0,4,3.044,357,17.56,17.62,0,0,51.94,58.26,33.77,35.28
"2017-09-18 01:50:00",306216,1.806,116.5,17.48,94.4,0,0,844.4701,0,3.769,3.046,323,17.57,17.61,0,0,51.94,58.38,33.77,35.31
"2017-09-18 02:00:00",306217,1.265,83.2,17.36,96.6,0,0,844.9207,0,2.18,3.063,212,17.57,17.63,0,0,51.88,58.5,33.76,35.33
"2017-09-18 02:10:00",306218,1.304,68.14,17.26,99.8,0,1,845.3018,0,1.948,3.065,257,17.57,17.64,0,0,51.82,58.56,33.75,35.35
"2017-09-18 02:20:00",306219,1.196,35.67,17.22,100,0,0,845.864,0,1.298,3.072,202,17.55,17.61,0,0,51.88,58.67,33.76,35.37
"2017-09-18 02:30:00",306220,1.15,61.74,17.21,100,0,2.5,846.6641,0,3.415,3.051,320,17.57,17.64,0,0,52.16,58.79,33.83,35.4
"2017-09-18 02:40:00",306221,1.147,74.22,17.14,100,0,0,847.5168,0,4.435,3.042,261,17.57,17.65,0.003788866,0,52.66,59.03,33.95,35.45
"2017-09-18 02:50:00",306222,0.799,52.72,17.04,100,0,0,848.1169,0,4.278,3.044,265,17.53,17.62,0,0,52.66,59.32,33.95,35.52
"2017-09-18 03:00:00",306223,0.727,50.43,16.96,100,0,0.5,848.7233,0,1.907,3.067,253,17.51,17.63,0,0,52.6,59.56,33.94,35.58
"2017-09-18 03:10:00",306224,0.499,204.7,16.85,100,0,0,849.5591,0,1.12,3.076,230,17.5,17.61,0,0,52.55,59.73,33.92,35.62
"2017-09-18 03:20:00",306225,0.602,188.6,16.66,100,0,0,850.1086,0,1.424,3.074,216,17.49,17.6,0,0,52.49,59.79,33.91,35.63
"2017-09-18 03:30:00",306226,0.777,177.2,16.39,100,0,0,850.5002,0,0.491,3.084,221,17.49,17.59,0,0,52.44,59.79,33.89,35.63
"2017-09-18 03:40:00",306227,0.369,116.8,16.09,100,0.007858836,0,850.993,0,0.527,3.086,255,17.49,17.57,0.007577413,0.032,52.38,59.79,33.88,35.63
"2017-09-18 03:50:00",306228,0.438,278.1,15.82,100,0,0,851.3361,0,2.62,3.067,225,17.51,17.59,0,0,52.32,59.79,33.87,35.63
"2017-09-18 04:00:00",306229,0.544,299.7,15.49,100,0,0,851.8444,0,1.87,3.077,237,17.53,17.62,0,0,52.27,59.85,33.85,35.64
"2017-09-18 04:10:00",306230,0.924,331.7,15.06,100,0.007859674,0,852.1599,0,2.52,3.072,240,17.55,17.63,0,0,52.21,59.85,33.84,35.64
"2017-09-18 04:20:00",306231,0.841,320,14.89,100,0.4244448,0,852.2166,0,1.019,3.087,202,17.59,17.66,0.007578412,0,52.21,59.79,33.84,35.63
"2017-09-18 04:30:00",306232,1.193,324.4,14.73,99.9,0.7427904,0,852.597,0,0.417,3.094,199,17.61,17.69,0.003789366,0.004,52.16,59.73,33.83,35.62
"2017-09-18 04:40:00",306233,0.524,279.3,14.62,99.7,0.3615783,0,853.0686,0,-0.123,3.099,198,17.62,17.7,0.1212636,0.321,52.1,59.73,33.81,35.62
"2017-09-18 04:50:00",306234,0.629,26.74,14.53,100,0.1218381,0,853.5496,0,0.224,3.097,193,17.62,17.7,0.1515804,0.209,52.05,59.67,33.8,35.6
"2017-09-18 05:00:00",306235,0.173,50.23,14.51,100,0.07860541,0,853.9578,0,-0.337,3.102,197,17.61,17.7,0.1970558,0,51.99,59.67,33.79,35.6
"2017-09-18 05:10:00",306236,0.126,254.1,14.42,100,0,0,854.2953,0,-0.186,3.101,196,17.6,17.71,0.06063264,0,51.94,59.61,33.77,35.59
"2017-09-18 05:20:00",306237,0.532,226,14.28,100,0,0,854.5543,0,0.313,3.098,193,17.56,17.71,0.03789541,0,51.94,59.56,33.77,35.58
"2017-09-18 05:30:00",306238,0.599,30.33,14.08,100,0.01965142,0,854.7056,0,0.977,3.092,209,17.54,17.71,0.03789541,0.064,51.82,59.5,33.75,35.56
"2017-09-18 05:40:00",306239,0.959,354.7,13.96,100,0.4952157,0,854.8223,0,0.693,3.095,225,17.54,17.71,0.04547449,0.043,51.88,59.5,33.76,35.56
"2017-09-18 05:50:00",306240,0.972,302.3,13.95,98.6,0.8057081,0.5,855.2147,0,0.307,3.099,205,17.55,17.71,0.0833699,0.082,51.77,59.5,33.73,35.56
"2017-09-18 06:00:00",306241,0.348,69.28,13.82,100,2.342449,0,855.4654,0,2.476,3.079,225,17.57,17.71,0.3675855,0.157,51.77,59.5,33.73,35.56
"2017-09-18 06:10:00",306242,0.3,314.3,13.73,100,2.967364,0,855.5482,0,1.657,3.087,214,17.58,17.71,0.2614783,0.082,51.71,59.44,33.72,35.55
"2017-09-18 06:20:00",306243,0.306,233.2,13.69,99.7,2.931991,0,855.8823,0,2.248,3.081,224,17.58,17.71,0.3259005,0.117,51.71,59.38,33.72,35.54
"2017-09-18 06:30:00",306244,0.046,172.7,13.75,99,2.373891,0,856.2601,0,2.35,3.08,217,17.57,17.71,0.4282182,0.164,51.66,59.38,33.7,35.54
"2017-09-18 06:40:00",306245,0.183,22.18,13.66,100,5.419861,0,856.527,0,2.548,3.079,218,17.54,17.71,0.8829631,0.171,51.66,59.32,33.7,35.52
"2017-09-18 06:50:00",306246,0.041,351.7,13.64,100,11.63757,0,856.5355,0,2.445,3.08,218,17.55,17.71,1.56887,0.137,51.66,59.32,33.7,35.52
"2017-09-18 07:00:00",306247,0.267,29.53,13.66,99.4,17.89851,0,856.5217,0,2.193,3.082,210,17.54,17.71,2.224461,0.122,51.66,59.26,33.7,35.51
"2017-09-18 07:10:00",306248,0.316,62.07,13.74,94.7,16.36177,0,856.7,0,1.988,3.084,214,17.54,17.71,1.90235,0.116,51.6,59.26,33.69,35.51
"2017-09-18 07:20:00",306249,0.377,353.4,13.77,94.1,22.5048,0,856.9777,0,2.507,3.078,230,17.54,17.71,2.792892,0.124,51.6,59.2,33.69,35.5
"2017-09-18 07:30:00",306250,0.349,106.6,13.76,97.2,21.45935,0,857.2946,0,1.578,3.088,209,17.54,17.71,2.80805,0.131,51.6,59.14,33.69,35.48
"2017-09-18 07:40:00",306251,0.193,25.35,13.66,99,39.52686,0,857.3194,0,0.758,3.096,198,17.52,17.71,4.854402,0.123,51.6,59.14,33.69,35.48
"2017-09-18 07:50:00",306252,0.009,75.54,13.75,99.4,33.07334,0.5,857.602,0,-0.055,3.103,194,17.47,17.71,4.035861,0.122,51.55,59.14,33.68,35.48
"2017-09-18 08:00:00",306253,0,0,13.81,100,44.77772,0,857.7977,0,1.687,3.086,221,17.48,17.71,5.570625,0.124,51.55,59.14,33.68,35.48
"2017-09-18 08:10:00",306254,0,0,13.89,100,50.08753,0,857.8277,0,2.973,3.073,246,17.47,17.71,5.983685,0.119,51.55,59.08,33.68,35.47
"2017-09-18 08:20:00",306255,0.092,12.02,13.93,100,70.97698,0,858.056,0,0.874,3.093,191,17.46,17.71,8.606048,0.121,51.55,59.14,33.68,35.48
"2017-09-18 08:30:00",306256,0.138,37.93,14.07,100,58.39222,0,858.2953,0,0.471,3.096,185,17.45,17.71,6.734015,0.115,51.6,59.14,33.69,35.48
"2017-09-18 08:40:00",306257,0.2,13.99,14.06,100,58.49048,0,858.3443,0,0.82,3.094,199,17.46,17.71,6.533168,0.112,51.55,59.08,33.68,35.47
"2017-09-18 08:50:00",306258,0.065,275,14,100,87.73965,0.5,858.5473,0,2.104,3.081,212,17.47,17.71,10.12565,0.115,51.55,59.08,33.68,35.47
"2017-09-18 09:00:00",306259,0,0,14.06,100,80.77126,1,858.7608,0,0.21,3.099,203,17.46,17.71,9.060792,0.112,51.55,59.08,33.68,35.47
"2017-09-18 09:10:00",306260,0.024,28.52,14.19,100,93.21847,0.5,858.8364,0,0.532,3.094,194,17.46,17.71,10.89493,0.116,51.66,59.08,33.7,35.47
"2017-09-18 09:20:00",306261,0.041,54.56,14.31,100,74.7029,0.5,859.0214,0,2.988,3.071,253,17.45,17.71,8.238462,0.11,51.82,59.08,33.75,35.47
"2017-09-18 09:30:00",306262,0.342,94.1,14.15,100,100.348,0,859.165,0,3.035,3.071,250,17.44,17.71,11.98632,0.117,51.94,59.14,33.77,35.48
"2017-09-18 09:40:00",306263,0.452,37.46,14.22,100,176.3951,0,859.2328,0,1.504,3.085,205,17.45,17.71,22.66146,0.128,51.94,59.2,33.77,35.5
"2017-09-18 09:50:00",306264,0.224,125.1,14.29,100,80.56688,0,859.3077,0,3.35,3.067,230,17.45,17.71,9.212374,0.114,51.99,59.26,33.79,35.51
"2017-09-18 10:00:00",306265,0.062,138.8,14.37,100,106.7651,0.5,859.4928,0,2.066,3.08,230,17.44,17.71,12.82747,0.12,51.99,59.32,33.79,35.52
"2017-09-18 10:10:00",306266,0.054,47.6,14.59,100,226.9243,0,859.6737,0,3.264,3.066,224,17.45,17.69,28.6221,0.126,51.94,59.32,33.77,35.52
"2017-09-18 10:20:00",306267,0.227,44.65,14.87,100,305.5274,0,859.76,0,2.838,3.069,223,17.45,17.66,38.12974,0.125,51.99,59.32,33.79,35.52
"2017-09-18 10:30:00",306268,0.243,255.7,14.92,100,343.8041,0,859.8343,0,1.214,3.086,196,17.45,17.63,42.41568,0.123,51.94,59.32,33.77,35.52
"2017-09-18 10:40:00",306269,0.33,276.6,14.68,100,253.0521,0,859.8807,0,3.2,3.066,250,17.45,17.62,31.0994,0.122,51.94,59.38,33.77,35.54
"2017-09-18 10:50:00",306270,0.518,321.5,14.53,99.7,140.7959,0.5,859.9824,0,-0.386,3.104,194,17.43,17.63,16.03616,0.11,51.88,59.38,33.76,35.54
"2017-09-18 11:00:00",306271,0.764,305.6,14.34,100,289.4254,0.5,860.1353,0,2.88,3.071,219,17.44,17.68,36.70242,0.127,51.94,59.38,33.77,35.54
"2017-09-18 11:10:00",306272,0.858,283.2,14.93,98.7,831.3966,0,860.2403,0,1.663,3.078,219,17.47,17.65,102.7826,0.123,51.94,59.38,33.77,35.54
"2017-09-18 11:20:00",306273,0.86,310.2,15.33,90.5,642.1762,0,860.2723,0,-1.525,3.11,193,17.49,17.6,82.47117,0.127,51.94,59.44,33.77,35.55
"2017-09-18 11:30:00",306274,0.566,301,15.14,88.8,452.7172,0,860.4255,0,0.651,3.088,213,17.5,17.58,60.34265,0.128,51.99,59.44,33.79,35.55
"2017-09-18 11:40:00",306275,0.38,256.1,15.79,88.3,654.9106,0,860.3503,0,2.681,3.066,246,17.45,17.59,87.66451,0.127,51.94,59.44,33.77,35.55
"2017-09-18 11:50:00",306276,0.905,318,15.4,84.2,632.0577,0,860.3688,0,1.709,3.076,213,17.42,17.57,92.16689,0.136,51.94,59.44,33.77,35.55
"2017-09-18 12:00:00",306277,0.452,220,16.11,83.4,956.0823,0,860.2403,0,1.706,3.071,203,17.46,17.6,143.9237,0.148,51.88,59.44,33.76,35.55
"2017-09-18 12:10:00",306278,0.734,269,16.55,80.9,950.1505,0,860.2656,0,1.485,3.075,224,17.46,17.61,146.7015,0.151,51.88,59.44,33.76,35.55
"2017-09-18 12:20:00",306279,0.647,254.3,16.38,79.81,690.7464,0,860.333,0,0.134,3.09,207,17.44,17.61,101.4762,0.133,51.82,59.38,33.75,35.54
"2017-09-18 12:30:00",306280,0.786,265,15.84,79.86,608.0795,0,860.4509,0,3.275,3.059,230,17.45,17.58,94.48286,0.142,51.77,59.38,33.73,35.54
"2017-09-18 12:40:00",306281,0.455,262.4,15.72,82.8,285.7641,0,860.5352,0,1.613,3.077,249,17.49,17.53,40.7275,0.127,51.77,59.32,33.73,35.52
"2017-09-18 12:50:00",306282,0.638,265.4,16.43,78.62,1026.987,0,860.6973,0,2.588,3.062,241,17.55,17.56,171.8237,0.167,51.71,59.32,33.72,35.52
"2017-09-18 13:00:00",306283,0.613,301,16.64,75.28,430.0232,0,860.6888,0,-1.99,3.109,252,17.53,17.58,66.56338,0.144,51.71,59.32,33.72,35.52
"2017-09-18 13:10:00",306284,0.242,224.4,15.94,79.08,391.7317,0,860.6699,0,1.834,3.073,331,17.6,17.55,61.52121,0.144,51.66,59.26,33.7,35.51
"2017-09-18 13:20:00",306285,0.873,322.7,16.25,74.68,474.9586,0,860.5836,0,1.297,3.075,210,17.67,17.54,73.51102,0.153,51.66,59.26,33.7,35.51
"2017-09-18 13:30:00",306286,0.428,271.6,16.22,76.2,275.7295,0,860.7457,0,2.349,3.068,225,17.62,17.53,42.29205,0.153,51.71,59.2,33.72,35.5
"2017-09-18 13:40:00",306287,0.307,309.2,15.79,79.16,122.6146,0,860.7667,0,2.372,3.071,234,17.68,17.52,18.16467,0.147,51.66,59.2,33.7,35.5
"2017-09-18 13:50:00",306288,0.844,338.9,15.33,78.24,111.0281,0,860.95,0,1.543,3.08,217,17.77,17.49,15.34621,0.139,51.6,59.14,33.69,35.48
"2017-09-18 14:00:00",306289,0.45,284.3,15.15,79.4,157.2011,0,860.9879,0,-0.005,3.096,231,17.77,17.49,22.24841,0.143,51.55,59.14,33.68,35.48
"2017-09-18 14:10:00",306290,0.708,300.6,15.23,77.19,181.6246,0,861.0405,0,0.055,3.094,260,17.73,17.5,30.13575,0.164,51.55,59.2,33.68,35.5
"2017-09-18 14:20:00",306291,0.759,285.7,15.33,76.85,132.2805,0,861.0342,0,2.623,3.068,234,17.84,17.54,25.3785,0.222,51.55,59.14,33.68,35.48
"2017-09-18 14:30:00",306292,0.569,217.6,15.56,75.65,58.50028,0,861.0047,0,3.445,3.059,233,17.87,17.57,15.05229,0.257,51.49,59.14,33.66,35.48
"2017-09-18 14:40:00",306293,0.405,113,15.65,73.42,95.55043,0,861.0004,0,2.727,3.065,246,17.93,17.62,17.43232,0.186,51.49,59.08,33.66,35.47
"2017-09-18 14:50:00",306294,0.481,223.7,15.82,75.03,127.8461,0,861.0257,0,3.551,3.056,305,17.93,17.61,22.61282,0.179,51.44,59.08,33.65,35.47
"2017-09-18 15:00:00",306295,0.578,270.7,15.98,72.96,155.9668,0,861.1794,0,2.045,3.072,219,17.99,17.63,24.35252,0.156,51.38,59.08,33.64,35.47
"2017-09-18 15:10:00",306296,0.366,244.7,15.65,71.64,100.9487,0,861.2342,0,-0.655,3.101,192,18.03,17.65,14.15654,0.138,51.38,59.03,33.64,35.45
"2017-09-18 15:20:00",306297,0.363,215.6,15.36,75.88,83.02586,0,861.251,0,-0.595,3.099,198,18.07,17.61,12.26596,0.147,51.33,59.03,33.62,35.45
"2017-09-18 15:30:00",306298,0.33,204.3,15.64,73.53,121.4141,0,861.251,0,0.845,3.082,201,18.13,17.61,18.93886,0.155,51.33,58.97,33.62,35.44
"2017-09-18 15:40:00",306299,0.292,181.3,16.21,72.56,111.9184,0,861.2693,0,-0.652,3.097,198,18.1,17.61,16.91527,0.15,51.27,58.97,33.61,35.44
"2017-09-18 15:50:00",306300,0.665,2.894,15.82,73.25,124.7322,0,861.3586,0,-0.068,3.092,204,18.08,17.63,18.99209,0.152,51.33,58.97,33.62,35.44
"2017-09-18 16:00:00",306301,0.708,135.7,15.85,75.83,89.39359,0,861.2709,0,-0.035,3.094,200,18.17,17.62,12.70946,0.139,51.27,58.91,33.61,35.43
"2017-09-18 16:10:00",306302,0.252,123,15.43,81.1,65.57735,0,861.498,0,-0.858,3.102,200,18.19,17.63,8.738234,0.133,51.27,58.91,33.61,35.43
"2017-09-18 16:20:00",306303,0.466,187.1,15.21,82.5,40.61352,0,861.565,0,0.102,3.095,207,18.17,17.62,4.573747,0.107,51.21,58.91,33.6,35.43
"2017-09-18 16:30:00",306304,0.437,178.3,14.78,83.6,25.05453,0,861.6082,0,-0.38,3.102,200,18.19,17.62,2.307736,0.092,51.21,58.91,33.6,35.43
"2017-09-18 16:40:00",306305,0.157,188.8,14.36,84.7,22.2878,0,861.6783,0,-0.14,3.102,203,18.2,17.64,1.841648,0.083,51.16,58.85,33.58,35.41
"2017-09-18 16:50:00",306306,0.064,223.8,14.17,84.7,20.30341,0,861.775,0,0.89,3.091,323,18.22,17.66,1.959152,0.097,51.16,58.85,33.58,35.41
"2017-09-18 17:00:00",306307,0.173,178,14.1,86,18.18528,0,861.9952,0,0.079,3.101,234,18.24,17.66,1.944019,0.107,51.16,58.85,33.58,35.41
"2017-09-18 17:10:00",306308,0.21,189,13.85,87.9,15.70538,0,862.0781,0,0.505,3.098,219,18.24,17.66,1.773501,0.113,51.16,58.79,33.58,35.4
"2017-09-18 17:20:00",306309,0.148,152.3,13.69,89.5,13.02102,0,862.2083,0,2.887,3.075,259,18.24,17.67,1.572659,0.121,51.1,58.85,33.57,35.41
"2017-09-18 17:30:00",306310,0.048,106.4,13.62,89.4,9.554519,0,862.3456,0,3.809,3.066,305,18.27,17.69,1.375603,0.146,51.1,58.85,33.57,35.41
"2017-09-18 17:40:00",306311,0.044,168.4,13.66,88.1,5.848261,0,862.3965,0,3.044,3.073,244,18.24,17.69,1.32255,0.232,51.1,58.79,33.57,35.4
"2017-09-18 17:50:00",306312,0.083,278.8,13.67,84.8,1.642859,0,862.4966,0,2.808,3.076,240,18.22,17.71,1.083809,0.632,51.1,58.73,33.57,35.39
"2017-09-18 18:00:00",306313,0,0,13.37,86,0,0,862.5179,0,2.913,3.078,237,18.15,17.73,0.3941123,0,51.05,58.79,33.56,35.4
"2017-09-18 18:10:00",306314,0.198,18.99,13.12,87.4,0,0,862.5812,0,1.517,3.09,278,18.15,17.76,0.4812717,0,51.05,58.73,33.56,35.39
"2017-09-18 18:20:00",306315,0.309,150.8,13.54,85.4,0,0,862.5012,0,2.613,3.08,390,18.15,17.8,0.7162233,0,51.05,58.73,33.56,35.39
"2017-09-18 18:30:00",306316,0.172,172.5,13.05,88,0,0,862.6044,0,-0.435,3.11,243,18.12,17.82,0.1856875,0,51.05,58.73,33.56,35.39
"2017-09-18 18:40:00",306317,0.224,39.47,13.24,85.9,0,0,862.6044,0,-1.338,3.12,240,18.14,17.84,0.651801,0,51.05,58.67,33.56,35.37
"2017-09-18 18:50:00",306318,0.148,39.42,12.91,86.6,0,0,862.6276,0,-1.528,3.124,267,18.11,17.83,0.2425306,0,50.99,58.67,33.54,35.37
"2017-09-18 19:00:00",306319,0.025,68.95,12.46,88,0,0,862.8129,0,1.768,3.092,313,18.1,17.83,0.1212653,0,51.05,58.61,33.56,35.36
"2017-09-18 19:10:00",306320,0.094,7.395,13.41,78.05,0,0,862.975,0,-1.52,3.118,216,18.08,17.83,1.614344,0,51.05,58.61,33.56,35.36
"2017-09-18 19:20:00",306321,0.072,104.3,12.3,86.6,0,0,863.0888,0,0.332,3.111,249,18.06,17.83,0.04547449,0,50.99,58.61,33.54,35.36
"2017-09-18 19:30:00",306322,0.23,170.7,11.45,91.5,0,0,863.1098,0,1.907,3.097,238,18.02,17.83,0,0,50.99,58.61,33.54,35.36
"2017-09-18 19:40:00",306323,0.221,172.2,11.22,92.4,0,0,863.2278,0,0.491,3.113,230,17.95,17.84,0,0,50.94,58.56,33.53,35.35
"2017-09-18 19:50:00",306324,0.195,209.6,11.17,93.4,0,0,863.3964,0,1.954,3.097,258,17.98,17.84,0.2387411,0,50.94,58.56,33.53,35.35
"2017-09-18 20:00:00",306325,0.069,207.7,11.12,93.7,0,0,863.6321,0,2.303,3.095,266,18.01,17.84,0.1781084,0,50.94,58.56,33.53,35.35
"2017-09-18 20:10:00",306326,0.402,195.4,10.89,94.4,0,0,863.7101,0,0.792,3.111,276,17.94,17.84,0.1856875,0,50.94,58.5,33.53,35.33
"2017-09-18 20:20:00",306327,0.455,190.3,10.69,95.1,0,0,863.6617,0,-0.13,3.121,272,17.96,17.84,0.1781084,0,50.94,58.5,33.53,35.33
"2017-09-18 20:30:00",306328,0.476,187.8,10.52,96.6,0,0,863.6743,0,0.145,3.119,274,17.92,17.84,0.1667414,0,50.94,58.56,33.53,35.35
"2017-09-18 20:40:00",306329,0.509,186.9,10.45,97.8,0,0,863.6195,0,-0.136,3.122,266,17.84,17.84,0.3751692,0,50.88,58.5,33.52,35.33
"2017-09-18 20:50:00",306330,0.428,192.6,10.5,98.7,0,0,863.668,0,1.139,3.109,237,17.8,17.84,0.45475,0,50.88,58.5,33.52,35.33
"2017-09-18 21:00:00",306331,0.389,189.4,10.51,98.6,0,0,863.7607,0,2.817,3.093,426,17.82,17.84,0.4547542,0,50.94,58.5,33.53,35.33
"2017-09-18 21:10:00",306332,0.34,186.4,10.42,98.8,0,0,863.6216,0,-1.39,3.135,233,17.8,17.84,0.4547543,0,50.88,58.5,33.52,35.33
"2017-09-18 21:20:00",306333,0.065,191.7,10.64,97.6,0,0,863.7712,0,-1.186,3.132,249,17.72,17.85,0.7768772,0,50.88,58.5,33.52,35.33
"2017-09-18 21:30:00",306334,0.194,190.9,10.38,96.6,0,0,863.8682,0,-2.289,3.144,221,17.76,17.86,0.4547753,0,50.88,58.44,33.52,35.32
"2017-09-18 21:40:00",306335,0.17,357.2,11.15,94.2,0,0,863.7944,0,-0.086,3.11,257,17.73,17.86,1.815337,0,50.88,58.44,33.52,35.32
"2017-09-18 21:50:00",306336,0.288,322.8,12.66,81.5,0,0,863.6238,0,-2.11,3.134,229,17.64,17.87,2.508983,0,50.88,58.44,33.52,35.32
"2017-09-18 22:00:00",306337,0.227,43.18,12.19,82.3,0,0,863.6174,0,-1.435,3.126,218,17.67,17.86,1.447781,0,50.88,58.44,33.52,35.32
"2017-09-18 22:10:00",306338,0.172,49.47,11.87,84.3,0,0,863.7375,0,1.803,3.096,357,17.69,17.85,0.9474796,0,50.88,58.38,33.52,35.31
"2017-09-18 22:20:00",306339,0.13,164.3,10.61,90.1,0,0,863.7796,0,0.16,3.12,268,17.63,17.85,0.02273918,0,50.83,58.38,33.5,35.31
"2017-09-18 22:30:00",306340,0.265,177.3,10.19,94.8,0,0,863.807,0,-1.218,3.135,217,17.58,17.85,0,0,50.83,58.38,33.5,35.31
"2017-09-18 22:40:00",306341,0.41,191.9,10.01,97.4,0,0,863.8576,0,-2.031,3.143,201,17.58,17.84,0.04547473,0,50.83,58.38,33.5,35.31
"2017-09-18 22:50:00",306342,0.196,199.4,10.11,98.1,0,0,863.8682,0,2.747,3.097,299,17.56,17.84,0.3183246,0,50.83,58.32,33.5,35.29
"2017-09-18 23:00:00",306343,0.533,189.9,9.87,99,0,0,863.8513,0,2.556,3.099,249,17.49,17.86,0.3410878,0,50.83,58.32,33.5,35.29
"2017-09-18 23:10:00",306344,0.254,187.9,9.88,100,0,0,863.6722,0,2.122,3.103,208,17.52,17.87,0.4547926,0,50.83,58.32,33.5,35.29
"2017-09-18 23:20:00",306345,0.53,186.2,9.81,100,0,0,863.5964,0,3.123,3.094,213,17.5,17.89,0.3486937,0,50.77,58.26,33.49,35.28
"2017-09-18 23:30:00",306346,0.116,177.7,10.03,100,0,0,863.7775,0,2.345,3.098,207,17.45,17.9,0.7580812,0,50.83,58.26,33.5,35.28
"2017-09-18 23:40:00",306347,0.011,189.6,10.33,99.7,0,0,863.8955,0,1.675,3.105,208,17.47,17.92,1.04999,0,50.83,58.26,33.5,35.28
"2017-09-18 23:50:00",306348,0.06,187.6,10,98.6,0,0,864.0871,0,1.686,3.107,223,17.45,17.93,0.4359297,0,50.77,58.26,33.49,35.28
